Regional Weather Roundup
Issued by NWS

Home | Current Version | Previous Version | Graphics & Text | Print | Product List | Glossary On
Versions: 1 2 3 4 5 6 7 8 9 10 11 12 13 14 15 16 17 18 19 20 21 22 23 24 25 26 27 28 29 30 31 32 33 34 35 36 37 38 39 40 41 42 43 44 45 46 47 48 49 50
000
ASUS45 KBOU 182307
RWRCO

WEATHER ROUNDUP FOR COLORADO
NATIONAL WEATHER SERVICE DENVER/BOULDER CO
500 PM MDT FRI AUG 18 2017

NOTE: "FAIR" INDICATES FEW OR NO CLOUDS BELOW 12000 FEET WITH NO
SIGNIFICANT WEATHER AND/OR OBSTRUCTIONS TO VISIBILITY.

COZ001>005-013-030-031-190000-
...NORTHWEST COLORADO...

CITY           SKY/WX    TMP DP  RH WIND       PRES   REMARKS
CRAIG          FAIR      87  26  11 NW9       30.20F
HAYDEN         FAIR      84  31  14 W15G24    30.23F
MEEKER         FAIR      84  37  18 S5        30.20F
RABBIT EARS PA FAIR      63  32  31 NW6       30.55F
STEAMBOAT SPGS FAIR      81  32  16 W7        30.25F
WALDEN         FAIR      75  27  16 W12       30.37S
$$

COZ006>008-011-190000-
...WEST CENTRAL VALLEYS...

CITY           SKY/WX    TMP DP  RH WIND       PRES   REMARKS
GRAND JUNCTION FAIR      93  30  10 NW18G25   30.09F
MONTROSE       FAIR      88  35  15 N7        30.17F
EAGLE          FAIR      85  28  12 W13       30.23F
RIFLE          FAIR      91  21   8 W16G28    30.13F
DELTA          FAIR      95  31  10 NW3G16    30.12F
NUCLA          FAIR      86  27  11 N5        30.22F
$$

COZ017>023-064>068-190000-
...SOUTHWEST COLORADO...

CITY           SKY/WX    TMP DP  RH WIND       PRES   REMARKS
DURANGO        FAIR      86  26  11 NW13G18   30.24F
CORTEZ         FAIR      86  29  12 VRB5      30.19F
PAGOSA SPRINGS CLOUDY    83  18   9 W8        30.33F
TELLURIDE      FAIR      75  27  17 W12G18    30.47S
WOLF CREEK PAS NOT AVBL
$$

COZ009-010-012-014-032>034-037-058>063-190000-
...CENTRAL COLORADO...

CITY           SKY/WX    TMP DP  RH WIND       PRES   REMARKS
ASPEN          FAIR      78  34  20 N6        30.32F
BUENA VISTA    PTSUNNY   80  25  12 SW6       30.32S
COPPER MTN     PTSUNNY   61  27  27 NW10G16   30.68F
BERTHOUD PASS  CLOUDY    52  46  82 NW12G26   30.71R
COTTONWOOD PAS FAIR      73  12   9 NW5       30.48F
GUNNISON       FAIR      79  35  20 E7        30.32F
KREMMLING      PTSUNNY   86  28  12 NW5       30.29F
LEADVILLE      FAIR      70  26  19 W12       30.45F
SALIDA         FAIR      83  25  12 SW10      30.35F
SUNLIGHT       FAIR      63  32  31 SW7       30.61S
WILKERSON PASS FAIR      64  27  24 SW6G16    30.63F
$$

COZ069>075-190000-
...SAN LUIS VALLEY/SANGRE DE CRISTO MOUNTAINS...

CITY           SKY/WX    TMP DP  RH WIND       PRES   REMARKS
ALAMOSA        FAIR      80  32  17 VRB3      30.31F
DEL NORTE      FAIR      78  38  23 SE8       30.34F
LA VETA PASS   NOT AVBL
SAGUACHE       FAIR      79  34  19 SW12      30.34F
$$

COZ035-036-038>040-190000-
...NORTHERN COLORADO FRONT RANGE...

CITY           SKY/WX    TMP DP  RH WIND       PRES   REMARKS
DENVER INTL AP FAIR      87  37  17 VRB3      30.13F
DMNS CITY PARK   N/A     88  35  15 NE2       30.12S
AURORA         MOSUNNY   86  42  20 NE3       30.15F
FRONT RANGE AP FAIR      88  36  15 NE5       30.15F
ERIE MUNI ARPT FAIR      88  33  14 NE7       30.16S
BOULDER MUN AP FAIR      88  39  18 N3        30.13S
CENTENNIAL     FAIR      86  38  18 SE10      30.16F
BROOMFIELD     MOSUNNY   86  37  17 CALM      30.16F
FORT COLLINS   FAIR      87  46  24 SE8       30.12F
LONGMONT       NOT AVBL
$$

COZ041-046-047-076>085-087-088-190000-
...PIKES PEAK/PALMER DIVIDE AND SOUTHERN FOOTHILLS...

CITY           SKY/WX    TMP DP  RH WIND       PRES   REMARKS
COLO. SPRINGS  FAIR      84  43  23 SE15      30.21F
A. F. ACADEMY  FAIR      81  41  24 SE15G23   30.22S
SCHRIEVER AFB  FAIR      81  39  22 SE5       30.22F
CHEYENNE MTN   FAIR      77  39  25 SE20      30.21F
ELLICOTT       FAIR     N/A N/A N/A S10       30.20F
FALCON         FAIR      80  39  23 SE7G16    30.28S
FORT CARSON    FAIR      84  43  24 SE10      30.17F
LIMON          FAIR      83  47  28 S10       30.16F
MONUMENT HILL  FAIR      77  43  29 SE9       30.29S
CANON CITY     SUNNY     91  46  21 E13       30.11F
WALSENBURG     NOT AVBL
TRINIDAD       FAIR      87  37  17 E6        30.18F
$$

COZ042>045-048>051-090-091-190000-
...NORTHEAST COLORADO...

CITY           SKY/WX    TMP DP  RH WIND       PRES   REMARKS
GREELEY ARPT   FAIR      86  43  22 NE6       30.10F
AKRON          FAIR      86  36  16 VRB3      30.11F
BURLINGTON     FAIR      85  51  31 E8        30.10F
WRAY           NOT AVBL
YUMA           FAIR      81  34  18 SE3       30.09S
STERLING       FAIR      88  46  23 NE6       30.06F
HOLYOKE        FAIR      88  52  29 S3        30.07F
FORT MORGAN    FAIR      87  38  17 SE6       30.10F
$$

COZ086-089-092>099-190000-
...SOUTHEAST COLORADO...

CITY           SKY/WX    TMP DP  RH WIND       PRES   REMARKS
PUEBLO         FAIR      92  41  17 SE14      30.08F
LA JUNTA       FAIR      92  44  19 VRB3      30.07F
LAMAR          FAIR      92  51  24 NE5       30.03F
SPRINGFIELD      N/A     90  49  24 N7        30.09S
$$



USA.gov is the U.S. government's official web portal to all federal, state and local government web resources and services.